Regional Weather Roundup
Issued by NWS

Home | Current Version | Previous Version | Graphics & Text | Print | Product List | Glossary On
Versions: 1 2 3 4 5 6 7 8 9 10 11 12 13 14 15 16 17 18 19 20 21 22 23 24 25 26 27 28 29 30 31 32 33 34 35 36 37 38 39 40 41 42 43 44 45 46 47 48 49 50
000
ASUS45 KTFX 271310
RWRMT
MONTANA REGIONAL WEATHER ROUNDUP
NATIONAL WEATHER SERVICE GREAT FALLS MT
700 AM MDT THU JUL 27 2017

NOTE: "FAIR" INDICATES FEW OR NO CLOUDS BELOW 12000 FEET WITH NO
SIGNIFICANT WEATHER AND/OR OBSTRUCTIONS TO VISIBILITY.

MTZ001>007-043-271400-
WEST OF THE DIVIDE

CITY           SKY/WX    TMP DP  RH WIND       PRES   REMARKS
KALISPELL      CLEAR     49  45  86 CALM      30.05R
MISSOULA       MOCLDY    61  47  59 W5        30.09R
BUTTE          CLOUDY    52  43  71 CALM      30.23R
MULLAN PASS    PTCLDY    63  31  30 VRB3      30.22R
DEER LODGE       N/A     57  48  72 CALM      30.19R
EUREKA           N/A     52  37  58 MISG      30.02S
HAMILTON         N/A     64  48  55 S15G22    30.12R
LIBBY            N/A     52  43  71 CALM      30.04R
PLAINS           N/A     53  43  69 CALM      30.06R
THOMPSON FALLS   N/A     51  41  69 CALM      30.09R
$$

MTZ008-052>055-271400-
SOUTHWEST MONTANA

CITY           SKY/WX    TMP DP  RH WIND       PRES   REMARKS
BOZEMAN        CLEAR     57  50  77 SE6       30.17R
DILLON         CLEAR     55  47  74 S12       30.21S
W YELLOWSTONE  CLOUDY    46  46 100 CALM      30.34S
ENNIS          CLEAR     55  46  71 SE8       30.27S
$$

MTZ009-010-012-014-046-048-049-054-271400-
EAST SLOPES AND CENTRAL MONTANA

CITY           SKY/WX    TMP DP  RH WIND       PRES   REMARKS
CUT BANK       CLOUDY    57  41  55 W5        30.04S
GREAT FALLS    CLOUDY    69  42  37 SW5       30.04R
MALMSTROM AFB  CLOUDY    71  44  37 W7        30.04R
HELENA         CLOUDY    67  51  56 W6        30.12R
CHOTEAU          N/A     64  37  36 W7        30.07S
CONRAD           N/A     56  47  71 CALM      30.05S
$$

MTZ011-013-016-021-045-047-050-051-271400-
NORTH CENTRAL MONTANA

CITY           SKY/WX    TMP DP  RH WIND       PRES   REMARKS
HAVRE          PTSUNNY   66  46  48 E10       29.97S
LEWISTOWN      CLOUDY    60  46  59 SE6       30.07
N BAR RANCH    PTSUNNY   64  52  63 SW5       30.13R
CHINOOK          N/A     61  54  77 CALM      29.98S
$$

MTZ017>020-022>027-061-062-271400-
NORTHEAST MONTANA

CITY           SKY/WX    TMP DP  RH WIND       PRES   REMARKS
GLASGOW        MOSUNNY   70  49  47 E21       29.98S
JORDAN           N/A     67  47  48 CALM      29.97F
SIDNEY         PTSUNNY   70  54  56 NE10      30.09R
WOLF POINT     MOSUNNY   72  52  49 E16       30.03R
MALTA          SUNNY     68  50  52 NE13      29.98S
PLENTYWOOD       N/A     70  55  60 SE13      30.07F
POPLAR           N/A     70  54  56 E20G28    30.03R
SCOBEY           N/A     66  47  50 E3        30.04
$$

MTZ028>42-056>058-271400-
SOUTHCENTRAL AND SOUTHEAST MONTANA

CITY           SKY/WX    TMP DP  RH WIND       PRES   REMARKS
BAKER          SUNNY     71  51  49 SE7       30.08S
BILLINGS       LGT RAIN  70  54  56 SW12      30.06R
LIVINGSTON     CLOUDY    66  49  54 W15       30.14F
MILES CITY     CLOUDY    73  52  47 S10       30.01S
BIG TIMBER     CLEAR     64  48  55 W20       30.14S
EKALAKA          N/A     72  52  49 SE7       30.07
FORSYTH          N/A     72  54  53 CALM      29.99F
LAUREL           N/A     67  54  63 MISG      30.06F
$$

REGIONAL REPORTS...DAKOTAS

CITY           SKY/WX    TMP DP  RH WIND       PRES   REMARKS
WILLISTON      LGT RAIN  67  58  72 SE16G26   30.08F
MINOT          CLOUDY    70  58  65 S8        30.11S
DICKINSON      SUNNY     64  57  78 E16       30.12R
BEACH            N/A     64  52  63 E15       30.12S
CROSBY           N/A     66  59  77 SW6       30.10R
TIOGA            N/A     64  63  94 S17G28    30.12S
WATFORD CITY   PTSUNNY   66  57  72 NE14G21   30.15R
BISMARCK       CLOUDY    66  61  84 CALM      30.18F
GRAND FORKS    CLOUDY    65  61  87 W3        30.12R
FARGO          SUNNY     64  60  87 NW5       30.13R
BUFFALO SD       N/A     69  57  65 S12       30.04S
RAPID CITY     CLOUDY    71  59  65 SE7       30.15F
$$

REGIONAL REPORTS...WYOMING/IDAHO/WASHINGTON

CITY           SKY/WX    TMP DP  RH WIND       PRES   REMARKS
GILLETTE       CLOUDY    67  58  72 S16       30.12S
SHERIDAN       PTSUNNY   61  54  77 CALM      30.09S
BUFFALO WY     SUNNY     65  53  65 NW3       30.15S
CODY           PTCLDY    66  51  58 N5        30.18R
YELLOWSTONE LA   N/A     43  43 100 CALM      30.42R
IDAHO FALLS    CLOUDY    56  55  97 CALM      30.22F
BOISE          PTCLDY    69  51  52 CALM      30.09R
SPOKANE        PTCLDY    64  44  48 S10       30.01R
$$

REGIONAL REPORTS...ALBERTA

CITY           SKY/WX    TMP DP  RH WIND       PRES   REMARKS
EDMONTON       CLEAR     54  54 100 CALM      29.89F
CALGARY        MOCLDY    57  43  58 VRB2      29.97S
LETHBRIDGE     MOCLDY    55  43  62 SW8       29.97S
MEDICINE HAT   PTCLDY    66  46  48 N7        29.93R
WATERTON GATE    N/A     57  43  58 SW5         N/A
CARDSTON         N/A     63  37  39 SW10        N/A
MILK RIVER       N/A     61  45  55 W6          N/A
$$

REGIONAL REPORTS...SASKATCHEWAN

CITY           SKY/WX    TMP DP  RH WIND       PRES   REMARKS
SWIFT CURRENT  SUNNY     64  50  59 SE9       30.01S
REGINA         MOSUNNY   61  52  72 SE14      30.08R
SASKATOON      SUNNY     63  55  77 SE5       30.03S
CYPRESS HILLS    N/A     63  45  51 SE7         N/A
VAL MARIE        N/A     64  50  59 E2          N/A
ROCKGLEN         N/A     68  54  60 SE12        N/A
ASSINIBOIA       N/A     55  54  94 S3          N/A
$$



USA.gov is the U.S. government's official web portal to all federal, state and local government web resources and services.